www.pogodaiklimat.ru

Погода и климат >> Архив погоды >> Россия >> Якутия >> Ытык-Кюёль


ПОГОДА в Ытык-Кюёле

  • Прогноз погоды в Ытык-Кюёле
  • Монитор погоды в Ытык-Кюёле

АРХИВ ПОГОДЫ в Ытык-Кюёле

Время (UTC), дата Ветер
(напр.,м/с)
 
Видим.   Явления Облачность Т
(С)
Тd
(С)
f
(%)
Тe
(С)
Тes
(С)
Комфортность P
(гПа)
Po
(гПа)
Тmin
(С)
Tmax
(С)
R
(мм)
R24
(мм)
S
(см)
03 17.03 С 3 50 км ясно -14.2 -19.9 62 -21 -17 1012.1 992.0
06 17.03 С 4 50 км ясно -12.2 -19.8 53 -19 -18 1011.9 992.0
09 17.03 С 3 50 км ясно -14.9 -20.9 60 -21 -21 1012.1 992.0
12 17.03 штиль 0 20 км ясно -25.3 -27.2 84 -25 -25 1014.3 993.3 -11.7
15 17.03 штиль 0 20 км 2 балла -31.8 -32.9 90 -32 -32 опасность
обморожения
1014.9 993.3
18 17.03 штиль 0 20 км 3/0
[Cs]
-35.6 -36.6 90 -36 -36 опасность
обморожения
1016.7 994.7
21 17.03 штиль 0 20 км 3/0
[Cs]
-37.6 -38.8 88 -38 -38 опасность
обморожения
1016.9 994.7
00 18.03 штиль 0 50 км 10/0
[Cs]
-28.8 -30.6 84 -29 -26 1016.1 994.7 -37.8 -10.9 32
03 18.03 штиль 0 50 км 10/0
[Ci fib]
-16.8 -22.7 60 -17 -17 1015.0 994.7
06 18.03 штиль 0 50 км 10/0
[Ci fib]
-11.3 -18.5 55 -11 -11 1014.6 994.7
09 18.03 Ю 1 50 км 10/0
[Ci fib]
-15.1 -17.0 85 -18 -18 1016.2 996.0
12 18.03 штиль 0 20 км 10/0
[Ci fib]
-26.7 -29.2 79 -27 -27 1016.9 995.5 -10.9
15 18.03 штиль 0 20 км 10/0
[Ci fib]
-28.3 -30.0 85 -28 -28 1018.7 997.3
18 18.03 штиль 0 20 км 10/0
[Ci fib]
-35.9 -37.5 85 -36 -36 опасность
обморожения
1019.0 996.9
21 18.03 штиль 0 20 км 10/0
[Ci fib]
-37.4 -38.9 86 -37 -37 опасность
обморожения
1020.3 998.0
00 19.03 штиль 0 50 км 3/0
[Ci fib]
-27.0 -30.2 74 -27 -24 1020.8 999.4 -37.5 31
03 19.03 штиль 0 50 км 3/0
[Ci fib]
-17.0 -22.9 60 -17 -12 1020.5 1000.0
06 19.03 Ю 1 50 км 3/0
[Ci fib]
-12.0 -20.3 50 -14 -12 1020.1 1000.0
09 19.03 штиль 0 20 км 3/0
[Ci fib]
-19.0 -23.1 70 -19 -19 1022.0 1001.3
12 19.03 ЮЗ 1 20 км 3/0
[Ci fib]
-27.4 -29.8 80 -31 -31 опасность
обморожения
1022.1 1000.7 -11.3
15 19.03 штиль 0 20 км 3/0
[Ci fib]
-32.9 -34.5 85 -33 -33 опасность
обморожения
1024.6 1002.7
18 19.03 штиль 0 20 км 3/0
[Ci fib]
-34.8 -36.5 84 -35 -35 опасность
обморожения
1024.8 1002.7
21 19.03 штиль 0 20 км 3/0
[Ci fib]
-38.1 -39.7 85 -38 -38 опасность
обморожения
1024.4 1002.1
00 20.03 Ю 1 10 км дымка 3/0
[Cs]
-31.3 -33.6 80 -36 -33 опасность
обморожения
1024.5 1002.7 -38.2 31
03 20.03 штиль 0 50 км 3/0
[Cs]
-17.2 -23.1 60 -17 -12 1024.6 1004.0
06 20.03 штиль 0 50 км ясно -12.1 -21.6 45 -12 -9 1022.8 1002.7
09 20.03 штиль 0 50 км ясно -14.1 -23.4 45 -14 -14 1024.3 1004.0
12 20.03 штиль 0 20 км ясно -26.6 -29.7 75 -27 -27 1025.1 1003.8 -10.0
15 20.03 штиль 0 20 км ясно -33.7 -35.3 85 -34 -34 опасность
обморожения
1027.3 1005.3
18 20.03 штиль 0 20 км ясно -35.2 -36.8 85 -35 -35 опасность
обморожения
1027.5 1005.3
21 20.03 штиль 0 20 км 3/0
[Cs]
-37.5 -38.8 88 -38 -38 опасность
обморожения
1027.1 1004.7
00 21.03 штиль 0 2000 м дымка 6/0
[Ci fib]
-28.2 -30.0 84 -28 -25 1026.2 1004.7 -37.6 31
03 21.03 штиль 0 50 км 6/0
[Ci fib]
-16.3 -22.2 60 -16 -14 1025.8 1005.3
06 21.03 Ю 2 50 км 3/0
[Ci fib]
-10.5 -21.2 41 -15 -13 1024.0 1004.0
09 21.03 СЗ 3 50 км 3/0
[Ci fib]
-13.5 -19.6 60
12 21.03 штиль 0 20 км ясно -26.3 -28.7 80 -26 -26 1024.6 1003.3 -10.0
15 21.03 штиль 0 20 км ясно -31.3 -33.0 85 -31 -31 опасность
обморожения
1025.8 1004.0
18 21.03 штиль 0 20 км ясно -32.8 -33.9 90 -33 -33 опасность
обморожения
1025.9 1004.0
00 22.03 В 1 20 км дымка 3/0
[Ci fib]
-26.0 -27.8 85 -30 -27 1022.6 1001.4 -32.8 31
03 22.03 Ю 1 20 км дымка 3/0
[Ci fib]
-16.1 -22.0 60 -19 -14 1021.7 1001.3
06 22.03 ЮЗ 2 50 км ясно -11.1 -18.6 54 -16 -13 1009.1 989.3
09 22.03 З 1 50 км ясно -14.1 -20.5 58 -17 -17 1018.9 998.7
12 22.03 штиль 0 20 км ясно -19.6 -22.2 80 -20 -20 1019.3 998.7 -10.7
15 22.03 штиль 0 20 км ясно -31.0 -32.2 89 -31 -31 опасность
обморожения
1018.9 997.3
21 22.03 Ю 1 20 км 5/0
[Cs]
-36.6 -37.6 90 -41 -41 опасность
обморожения
1015.0 993.0
00 23.03 штиль 0 50 км 8/0
[Cs]
-28.2 -30.0 84 -28 -25 1011.3 990.2 -36.7 31
03 23.03 Ю 2 50 км 8/0
[Cs]
-9.8 -18.5 49 -14 -12 1007.7 988.0
06 23.03 Ю 1 50 км 7 баллов -8.1 -17.4 47 -10 -9 1006.2 986.7
09 23.03 В 3 50 км 10 баллов -9.4 -18.4 48 -15 -15 1004.9 985.3
12 23.03 В 1 20 км 6/0
[As op Cs]
-14.6 -21.4 56 -17 -17 1004.8 984.9 -7.1
15 23.03 С 1 20 км 10 баллов -24.1 -26.7 79 -28 -28 1006.0 985.3
18 23.03 штиль 0 20 км 4 балла -28.0 -29.2 89 -28 -28 1006.4 985.3
21 23.03 штиль 0 20 км 2 балла -32.1 -33.1 91 -32 -32 опасность
обморожения
1006.7 985.3

 

Местоположение метеостанции Ытык-Кюёль (Якутия, Россия): широта 62.37 долгота 133.50 высота над уровнем моря 152 м.

В архиве по умолчанию представлена погода в Ытык-Кюёле за последнюю неделю. Архивные данные за месяц целиком и за предыдущие месяцы, начиная с января 2011 года, Вы можете получить, выбрав интересующий диапазон дат из раскрывающегося списка и нажав кнопку "Ввод!".


*Определитесь, кто Вы:
робот инопланетянин человек

Внимание! Время в таблицах - всемирное. Для получения местного времени необходимо прибавить поправку, которая равна 9 ч.

Смотрите также архив погоды в соседних городах и на ближайших метеорологических станциях:

Погода в Чурапче (Якутия, Россия) (60 км)
Погода в Крест-Хальджае (Якутия, Россия) (68 км)
Погода в Охотском Перевозе (Якутия, Россия) (118 км)
Погода в Верхоянском Перевозе (Якутия, Россия) (130 км)
Погода в Теплом Ключе (Якутия, Россия) (175 км)
Погода в Амге (Якутия, Россия) (184 км)
Погода в Намцах (Якутия, Россия) (204 км)
Погода в Якутске (Якутия, Россия) (207 км)
Погода в Томпо (Якутия, Россия) (210 км)
Погода в Усть-Мае (Якутия, Россия) (230 км)

Пояснения к столбцам:

Ветер - указаны скорость ветра в м/с - средняя за 10 мин, порывы в срок и между сроками (в фигурных скобках) и направление, откуда дует ветер: С - северный, СВ - северо-восточный, В - восточный, ЮВ - юго-восточный, Ю - южный, ЮЗ - юго-западный, З - западный, СЗ - северо-западный.
Видимость - горизонтальная дальность видимости в метрах или километрах. При видимости от 1 до 10 км при отсутствии осадков обычно наблюдается дымка, при ухудшении видимости до 1 км и менее - туман. В сухую погоду видимость может ухудшаться дымом, пылью или мглою.
Явления - указаны атмосферные явления, наблюдавшиеся в срок или в последний час перед сроком; фигурными скобками обозначены явления, наблюдавшиеся между сроками (за 1-3 часа до срока); квадратными скобками обозначены град или гололедные отложения с указанием их диаметра в мм.
Облачность - указаны через наклонную черту общая и нижняя облачность в баллах и высота нижней границы облаков в метрах; квадратными скобками обозначены формы облаков: Ci - перистые, Cs - перисто-слоистые, Cc - перисто-кучевые, Ac - высококучевые, As - высокослоистые, Sc - слоисто-кучевые, Ns - слоисто-дождевые, Cu - кучевые, Cb - кучево-дождевые. Подробнее классификацию облаков см. в Атласе облаков (PDF).
T - Температура воздуха - температура, измеренная на высоте 2 м над землей.
Td - Температура точки росы - температура, при понижении до которой содержащийся в воздухе водяной пар достигнет насыщения.
f - Относительная влажность воздуха - влажноcть воздуха, измеренная на высоте 2 м над землей.
Te - Эффективная температура - температура, которую ощущает одетый по сезону человек в тени. Характеристика душности погоды. При расчете учитывается влияние влажности воздуха и скорости ветра на теплоощущения человека.
Tes - Эффективная температура на солнце - температура, которую ощущает человек, с поправкой на солнечный нагрев. Характеристика знойности погоды. Зависит от высоты солнца над горизонтом, облачности и скорости ветра. Ночью, в пасмурную погоду, а также при ветре 12 м/с и более поправка равна нулю.
P - Атмосферное давление - приведенное к уровню моря атмосферное давление.
Po - Атмосферное давление - измеренное на уровне метеостанции атмосферное давление.
Tmin - Минимальная температура - минимум температуры воздуха на высоте 2 м над землей.
Tmax - Максимальная температура - максимум температуры воздуха на высоте 2 м над землей.
R - Количество осадков - Количество выпавших осадков за период времени, мм. При наведении курсора мыши на число - период времени, за который выпало указанное количество осадков.
R24 - Количество осадков - Количество выпавших осадков за 24 часа, мм.
S - Снежный покров - Высота снежного покрова, см. При наведении курсора мыши на число - состояние снежного покрова и степень покрытия местности в баллах.